[[{"header":{"parameterUnit":"m.s-1","parameterCategory":1,"la1":30.2991,"la2":30.254,"lo1":-89.0895,"lo2":-89.0444,"dy":0.0017,"dx":0.0017,"nx":28,"ny":28,"refTime":"2024-06-27T21:00:00:Z","depth":0,"parameterNumber":2,"parameterNumberName":"U-component_of_WINDS"},"data":[0,0,0,0,0,0,0,0,0,0,0,0,0,0,0,0,0,0,0,0,0,0,0,0,0,0,0,0,0,0,0,0,0,0,0,0,0,0,0,0,0,0,0,0,0,0,0,0,0,0,0,0,0,0,0,0,0,0,2.2467,2.2468,0,2.2607,2.2608,2.261,2.2642,2.2641,2.264,2.2639,2.2787,2.2791,2.2796,0,0,0,0,0,0,0,0,0,0,0,0,0,2.2231,2.2235,2.2467,2.2469,2.247,2.2607,2.2608,2.261,2.2642,2.2641,2.264,2.2639,2.2785,2.2791,2.2797,0,0,0,0,0,0,0,0,0,0,0,0,0,2.2348,2.2236,2.2466,2.2503,2.2507,2.2606,2.2609,2.2611,2.2643,2.2641,2.264,2.2638,2.2783,2.279,2.2797,2.2872,0,0,2.282,2.2823,0,0,0,0,0,0,0,0,2.2342,2.2357,2.2496,2.25,2.2506,2.2605,2.2579,2.2698,2.2643,2.2591,2.2639,2.2638,2.2728,2.274,2.2769,2.2878,2.2885,2.282,2.2825,2.2828,2.283,0,0,0,0,0,0,0,2.2334,2.2351,2.2522,2.2498,2.2504,2.2513,2.2528,2.2602,2.2666,2.2596,2.2598,2.2614,2.273,2.2762,2.2773,2.2887,2.282,2.2826,2.2831,2.2834,2.3064,2.3066,0,0,0,0,0,0,2.2319,2.2344,2.2518,2.2527,2.2418,2.2518,2.2535,2.2575,2.2666,2.2678,2.2615,2.2615,2.275,2.2764,2.2778,2.2871,2.2828,2.2834,2.2839,2.3062,2.3065,2.3067,0,0,0,0,0,0,2.2313,2.2334,2.2512,2.2436,2.246,2.2524,2.2568,2.2579,2.261,2.268,2.2692,2.2636,2.275,2.2768,2.2848,2.2876,2.2838,2.2844,2.306,2.3063,2.3066,2.3056,0,0,0,0,0,0,2.2306,2.2332,2.236,2.2436,2.2463,2.2578,2.257,2.2582,2.2622,2.2623,2.2703,2.2714,2.275,2.2837,2.2855,2.2886,2.285,2.3058,2.3062,2.3065,2.3055,2.3058,2.3062,0,0,0,0,0,2.2298,2.2352,2.2361,2.2382,2.25,2.258,2.2595,2.2634,2.2624,2.2654,2.2699,2.2712,2.287,2.2845,2.2865,2.2899,2.3057,2.3061,2.3064,2.3053,2.3058,2.3062,0,0,0,0,0,0,2.2279,2.2363,2.2373,2.2454,2.2509,2.2585,2.2623,2.2638,2.2698,2.2697,2.2744,2.2762,2.2839,2.2877,2.2847,2.2975,2.2963,2.2972,2.2947,2.2953,2.2956,2.2945,2.2856,0,0,0,0,0,2.2283,2.234,2.2412,2.2476,2.2503,2.2558,2.2595,2.262,2.2679,2.2703,2.2754,2.2813,2.2876,2.2916,2.2978,2.306,2.3078,2.3093,2.3097,2.31,2.3106,2.3153,2.316,2.308,2.308,2.308,0,0,2.2294,2.2348,2.2381,2.2473,2.2519,2.2578,2.2578,2.264,2.2685,2.2713,2.2791,2.2831,2.2899,2.298,2.3019,2.3015,2.3133,2.3105,2.3106,2.3112,2.3158,2.3165,2.3172,2.3082,2.3082,2.3081,0,0,2.2345,2.239,2.2449,2.2494,2.2563,2.26,2.2614,2.2687,2.2714,2.2793,2.2815,2.287,2.2977,2.3025,2.3063,2.3131,2.3146,2.315,2.317,2.3214,2.3221,2.3227,2.3251,2.3259,2.3157,2.3157,2.3157,0,2.235,2.2438,2.2477,2.2539,2.2579,2.2606,2.2666,2.2709,2.2795,2.2823,2.2817,2.2952,2.3,2.3092,2.3109,2.3139,2.3157,2.3141,2.3216,2.3223,2.3229,2.3253,2.3262,2.3157,2.3157,2.3157,2.3157,0,2.2442,2.2503,2.2542,2.2623,2.2668,2.2728,2.2777,2.2818,2.2839,2.2876,2.2956,2.3015,2.3089,2.3113,2.3135,2.3209,2.3204,2.3207,2.3196,2.3236,2.3259,2.3268,2.3157,2.3157,2.3157,2.3157,0,0,2.2483,2.2585,2.2598,2.2635,2.2713,2.2762,2.2824,2.2895,2.2929,2.2988,2.3041,2.3131,2.3134,2.3178,2.3205,2.3244,2.3294,2.3242,2.3245,2.325,2.338,2.3377,2.3387,2.3305,2.3307,2.3308,2.3374,0,2.2543,2.2653,2.269,2.2782,2.2839,2.2866,2.292,2.2974,2.3011,2.3066,2.3107,2.3169,2.3168,2.3195,2.3234,2.328,2.3321,2.3276,2.3356,2.3358,2.3337,2.3399,2.3397,2.3457,2.3384,2.3385,2.3386,0,2.2627,2.2685,2.2782,2.2853,2.2878,2.2926,2.2994,2.3046,2.3109,2.3133,2.3181,2.3205,2.3272,2.3257,2.335,2.3318,2.3353,2.3381,2.3384,2.3393,2.3374,2.341,2.3477,2.3485,2.3401,2.34,2.3399,0,2.2647,2.275,2.2822,2.2853,2.2937,2.297,2.3007,2.3068,2.3108,2.3168,2.3195,2.3262,2.33,2.3352,2.3394,2.3379,2.3484,2.3472,2.3506,2.3505,2.3527,2.3525,2.36,2.355,2.355,2.3549,2.3549,0,2.271,2.2768,2.2832,2.2876,2.2942,2.2985,2.305,2.3088,2.3142,2.3195,2.3223,2.3272,2.3325,2.3382,2.3416,2.3488,2.3504,2.3526,2.3535,2.3524,2.3521,2.3547,2.3544,2.3552,2.3551,2.3551,2.355,0,2.2744,2.2789,2.2868,2.2941,2.2961,2.3007,2.307,2.3114,2.3151,2.3218,2.3236,2.3295,2.3363,2.341,2.3498,2.3521,2.3599,2.3607,2.3577,2.3581,2.3613,2.3609,2.3707,2.3723,2.3662,2.3662,2.3663,0,2.278,2.2826,2.2903,2.294,2.2976,2.3035,2.3076,2.312,2.3162,2.3236,2.3272,2.3341,2.3399,2.3506,2.3558,2.3625,2.3635,2.3665,2.3645,2.3633,2.3636,2.3632,2.3637,2.3668,2.3668,2.3669,2.3669,0,2.2841,2.2861,2.2918,2.2983,2.3031,2.3085,2.3139,2.3168,2.3222,2.3268,2.3336,2.3381,2.347,2.3539,2.3611,2.365,2.3669,2.3674,2.3686,2.3675,2.3656,2.3667,2.3585,2.3672,2.3672,2.3672,2.3671,2.3671,2.2877,2.2919,2.2979,2.3043,2.3088,2.3138,2.3183,2.3226,2.3283,2.3358,2.3381,2.3453,2.3515,2.3613,2.3654,2.3711,2.3709,2.3726,2.373,2.3734,2.3733,2.3647,2.3725,2.3725,2.3725,2.3725,2.3724,0,2.2939,2.2979,2.3037,2.3111,2.3161,2.3173,2.3234,2.3275,2.3337,2.3393,2.3449,2.3528,2.3595,2.3652,2.3721,2.3756,2.3767,2.3773,2.3771,2.378,2.3731,2.3714,2.3764,2.3764,2.3764,2.3764,2.3764,2.3764,2.2977,2.3047,2.3075,2.3168,2.3209,2.3278,2.3312,2.3359,2.3403,2.349,2.3545,2.3581,2.3638,2.3712,2.3774,2.3789,2.3813,2.3818,2.3835,2.3788,2.3783,2.3779,2.3763,2.3823,2.3823,2.3879,2.388,2.388]},{"header":{"parameterUnit":"m.s-1","parameterCategory":1,"la1":30.2991,"la2":30.254,"lo1":-89.0895,"lo2":-89.0444,"dy":0.0017,"dx":0.0017,"nx":28,"ny":28,"refTime":"2024-06-27T21:00:00:Z","depth":0,"parameterNumber":3,"parameterNumberName":"V-component_of_WINDS"},"data":[0,0,0,0,0,0,0,0,0,0,0,0,0,0,0,0,0,0,0,0,0,0,0,0,0,0,0,0,0,0,0,0,0,0,0,0,0,0,0,0,0,0,0,0,0,0,0,0,0,0,0,0,0,0,0,0,0,0,4.7807,4.7807,0,4.7854,4.7855,4.7855,4.786,4.786,4.7859,4.7859,4.7902,4.7903,4.7905,0,0,0,0,0,0,0,0,0,0,0,0,0,4.7714,4.7716,4.7807,4.7807,4.7808,4.7854,4.7855,4.7855,4.786,4.786,4.7859,4.7858,4.7901,4.7903,4.7905,0,0,0,0,0,0,0,0,0,0,0,0,0,4.7757,4.7717,4.7807,4.7816,4.7817,4.7854,4.7855,4.7856,4.786,4.786,4.7859,4.7858,4.7901,4.7903,4.7905,4.7934,0,0,4.7913,4.7914,0,0,0,0,0,0,0,0,4.7755,4.7761,4.7814,4.7815,4.7817,4.7851,4.7838,4.7882,4.786,4.7844,4.7859,4.7858,4.7885,4.7889,4.7899,4.7936,4.7938,4.7913,4.7914,4.7915,4.7916,0,0,0,0,0,0,0,4.7752,4.7759,4.7825,4.7815,4.7817,4.7816,4.7821,4.7846,4.7868,4.7845,4.7846,4.7852,4.7886,4.7897,4.79,4.7939,4.7913,4.7915,4.7916,4.7917,4.8002,4.8003,0,0,0,0,0,0,4.7748,4.7756,4.7824,4.7827,4.7784,4.7818,4.7824,4.784,4.7867,4.7871,4.7852,4.7852,4.7893,4.7897,4.7901,4.7937,4.7915,4.7918,4.7919,4.8001,4.8002,4.8003,0,0,0,0,0,0,4.7746,4.7754,4.7822,4.7792,4.78,4.7821,4.7839,4.7842,4.7853,4.7873,4.7876,4.786,4.7892,4.7898,4.7926,4.7939,4.7919,4.7921,4.8,4.8002,4.8003,4.8009,0,0,0,0,0,0,4.7743,4.7753,4.7766,4.7792,4.7802,4.7848,4.784,4.7843,4.7858,4.7857,4.7881,4.7884,4.7892,4.7923,4.7929,4.7942,4.7923,4.7999,4.8001,4.8002,4.8008,4.801,4.8013,0,0,0,0,0,4.774,4.7764,4.7766,4.7774,4.7818,4.7848,4.7854,4.7865,4.7859,4.787,4.7883,4.7883,4.7937,4.7926,4.7932,4.7946,4.7999,4.8,4.8002,4.8007,4.801,4.8013,0,0,0,0,0,0,4.7737,4.7768,4.777,4.7804,4.7824,4.7849,4.7865,4.7868,4.7888,4.7887,4.7897,4.7903,4.7931,4.7941,4.7929,4.7976,4.7967,4.797,4.7968,4.7971,4.7973,4.797,4.7925,0,0,0,0,0,4.774,4.7764,4.7789,4.7816,4.7827,4.7844,4.7857,4.7864,4.7884,4.7892,4.7907,4.7925,4.7945,4.7959,4.7979,4.8009,4.8014,4.8022,4.8025,4.8026,4.8029,4.8046,4.805,4.8009,4.8009,4.8009,0,0,4.7747,4.7767,4.7781,4.7816,4.7832,4.7855,4.7851,4.7875,4.7891,4.7895,4.7923,4.7935,4.7955,4.7985,4.7999,4.7995,4.8041,4.8029,4.803,4.8032,4.8048,4.8052,4.8055,4.8011,4.801,4.801,0,0,4.7771,4.7789,4.7814,4.7831,4.7856,4.7868,4.7874,4.7899,4.7907,4.7936,4.7939,4.7958,4.7994,4.8009,4.8021,4.8051,4.8052,4.8057,4.8069,4.8086,4.8089,4.8092,4.8103,4.8106,4.806,4.806,4.806,0,4.7776,4.7813,4.7826,4.7851,4.7866,4.7873,4.7897,4.7912,4.7941,4.7951,4.7946,4.7992,4.8006,4.8039,4.8047,4.8056,4.8063,4.8055,4.8088,4.8091,4.8094,4.8104,4.8108,4.806,4.806,4.806,4.806,0,4.7817,4.7842,4.7859,4.789,4.7907,4.7931,4.7947,4.7962,4.7968,4.7979,4.8008,4.8026,4.805,4.8058,4.8063,4.8092,4.8089,4.8086,4.8077,4.8098,4.8108,4.8112,4.8061,4.8061,4.8061,4.8061,0,0,4.784,4.788,4.7885,4.79,4.7928,4.7947,4.7971,4.7997,4.8009,4.8029,4.8049,4.808,4.8078,4.8091,4.8097,4.8112,4.8135,4.8107,4.8108,4.8112,4.8168,4.817,4.8174,4.8136,4.8136,4.8137,4.8166,0,4.7868,4.7914,4.7927,4.7965,4.7988,4.7994,4.8015,4.8034,4.8045,4.8065,4.8076,4.8098,4.8094,4.8102,4.8117,4.8129,4.8146,4.8127,4.8153,4.8154,4.8148,4.818,4.8182,4.8208,4.817,4.8171,4.8171,0,4.7906,4.793,4.797,4.7997,4.8007,4.8026,4.805,4.807,4.809,4.8098,4.8114,4.8119,4.8143,4.8133,4.8165,4.8152,4.8163,4.8171,4.8172,4.8175,4.8164,4.8183,4.8217,4.8221,4.8177,4.8177,4.8176,0,4.7919,4.796,4.799,4.8002,4.8033,4.8047,4.806,4.808,4.8095,4.8116,4.8125,4.8148,4.816,4.8176,4.8187,4.8179,4.8219,4.821,4.8224,4.8224,4.8232,4.8231,4.8269,4.8239,4.8239,4.8239,4.8239,0,4.7948,4.7973,4.7997,4.8015,4.8043,4.8057,4.8083,4.8096,4.8114,4.8134,4.814,4.8158,4.8171,4.819,4.8199,4.8224,4.8229,4.8235,4.8237,4.8235,4.8234,4.8242,4.824,4.824,4.824,4.824,4.824,0,4.7967,4.7984,4.8017,4.8045,4.8052,4.8071,4.8094,4.8111,4.8123,4.8148,4.8155,4.8173,4.8196,4.8208,4.8237,4.8242,4.8271,4.8272,4.8265,4.8265,4.8279,4.8278,4.8323,4.833,4.8296,4.8296,4.8296,0,4.7985,4.8005,4.8035,4.805,4.8064,4.8087,4.8103,4.8117,4.8133,4.8159,4.8172,4.8197,4.8217,4.8253,4.8267,4.8289,4.829,4.8305,4.8294,4.8291,4.8291,4.8289,4.8291,4.8307,4.8307,4.8307,4.8307,0,4.8014,4.8022,4.8046,4.8073,4.8092,4.8113,4.8133,4.8144,4.8161,4.8178,4.8204,4.8219,4.8249,4.8273,4.8296,4.8307,4.831,4.8311,4.8315,4.8313,4.8309,4.8311,4.827,4.831,4.8309,4.8309,4.8309,4.8309,4.8033,4.8051,4.8076,4.8102,4.8119,4.8139,4.8157,4.8172,4.8194,4.8221,4.8227,4.8253,4.8273,4.8305,4.8317,4.8337,4.8334,4.834,4.8342,4.8343,4.8344,4.8306,4.8341,4.8341,4.8341,4.8341,4.8341,0,4.8063,4.808,4.8104,4.8134,4.8154,4.8157,4.818,4.8196,4.822,4.8239,4.826,4.8288,4.8311,4.8328,4.8351,4.8363,4.8365,4.8369,4.8368,4.8371,4.8345,4.8339,4.8367,4.8367,4.8367,4.8367,4.8367,4.8367,4.8081,4.8112,4.8123,4.8162,4.8177,4.8205,4.8218,4.8235,4.8251,4.8284,4.8304,4.8315,4.8333,4.8358,4.8379,4.8383,4.8391,4.8395,4.8399,4.8375,4.8372,4.837,4.8364,4.8397,4.8397,4.8423,4.8423,4.8423]}]]